#timestamp,LO_Frequency,Hit,StdDev 
1647291615.5,286047000.9,Y
1647291635.3,286046996.5,P
1647291655.2,286046997.2,N
1647291675.0,286046997.4,N
1647291675.9,286046997.4,N
1647291695.8,286046996.5,N
1647291715.6,286046997.7,N
1647291735.4,286046999.0,N
1647291755.3,286046999.5,N
1647291775.1,286046999.3,N
1647291795.9,286047000.9,N
1647291815.7,286047000.8,N
1647291835.5,286046999.3,N
1647291855.4,286047001.0,N
1647291875.2,286047000.1,N
1647291895.0,286046999.8,N
1647291895.9,286046999.8,N
1647291915.8,286047000.4,N
1647291935.6,286047001.0,N
1647291955.5,286047000.2,N
1647291975.3,286046998.3,N
1647291995.1,286046998.9,N
1647292015.9,286047001.2,N
1647292035.7,286047001.0,N
1647292055.5,286046998.3,N
1647292075.4,286046998.5,N
1647292095.2,286046999.2,N
1647292115.1,286046998.6,N
1647292116.0,286046998.6,N
1647292135.8,286046998.7,N
1647292155.6,286046999.5,N
1647292175.5,286046998.5,N
1647292195.3,286046997.4,N
1647292215.1,286046996.7,N
1647292235.9,286046999.2,N
1647292255.7,286046999.0,N
1647292275.6,286046996.5,Y
1647292295.4,286046998.7,P
1647292315.2,286046997.2,P
1647292335.1,286046999.5,N
1647292336.0,286046999.5,N
1647292355.8,286046998.3,N
1647292375.7,286046998.1,N
1647292395.5,286046998.6,N
1647292415.3,286046998.2,N
1647292435.2,286046999.5,N
1647292455.0,286046995.1,Y
1647292455.9,286046995.1,P
1647292475.8,286046998.4,N
1647292495.6,286046997.7,N
1647292515.4,286046997.2,N
1647292535.3,286046998.9,N
1647292555.1,286047000.7,N
1647292575.9,286047002.1,N
1647292595.7,286047001.4,N
1647292615.5,286047000.8,N
1647292635.4,286046997.9,N
1647292655.2,286046995.2,N
1647292675.1,286046995.3,N
1647292676.0,286046995.3,N
1647292695.8,286046999.2,N
1647292715.6,286046997.0,N
1647292735.5,286046999.6,N
1647292755.3,286046998.4,N
1647292775.2,286046998.6,N
1647292795.0,286047000.7,N
1647292795.9,286047000.7,N
1647292815.7,286046999.3,N
1647292835.6,286047000.7,N
1647292855.4,286046998.9,N
1647292875.3,286047000.7,N
1647292895.1,286047000.1,N
1647292915.8,286047000.0,N
1647292935.7,286047001.1,N
1647292955.5,286046998.8,N
1647292975.4,286046999.5,N
1647292995.2,286046999.3,N
1647293015.0,286046999.6,N
1647293015.9,286046999.6,N
1647293035.8,286046999.1,N
1647293055.6,286046998.4,N
1647293075.5,286047002.6,N
1647293095.3,286047001.9,N
1647293115.1,286047006.0,Y
1647293135.9,286047003.0,P
1647293155.7,286047001.6,N
1647293175.5,286047002.3,N
1647293195.4,286047002.4,N
1647293215.2,286047000.1,N
1647293235.1,286047001.8,N
1647293236.0,286047001.8,N
1647293255.8,286046999.7,N
1647293275.6,286047002.7,N
1647293295.5,286047002.0,N
1647293315.3,286047000.2,N
1647293335.2,286047002.2,N
1647293355.9,286047000.6,N
1647293405.2,286047001.8,E
1647293415.2,286047002.4,N
1647293435.9,286047000.3,P
1647293455.7,286047001.0,N
1647293475.6,286046999.7,N
1647293495.4,286047002.0,N
1647293515.2,286047001.7,N
1647293535.1,286047002.5,N
1647293536.0,286047002.5,N
1647293555.8,286047002.4,N
1647293575.7,286047002.0,N
1647293595.5,286047001.6,N
1647293615.3,286047002.4,N
1647293635.2,286047004.3,Y
1647293655.0,286047002.3,P
1647293655.9,286047002.3,P
1647293675.8,286047000.1,N
1647293695.6,286047000.4,N
1647293715.4,286047000.9,N
1647293735.3,286047000.7,N
1647293755.1,286047002.3,N
1647293775.8,286047000.7,N
1647293795.7,286047000.9,N
1647293815.5,286046998.2,N
1647293835.4,286047000.7,N
1647293855.2,286046998.4,N
1647293875.0,286046998.3,N
1647293875.9,286046998.3,N
1647293895.8,286047001.2,N
1647293915.6,286046998.5,N
1647293935.4,286047000.3,N
1647293955.3,286046999.9,N
1647293975.1,286047000.6,N
1647293995.9,286047001.7,N
1647294015.7,286046999.9,N
1647294035.5,286047000.1,N
1647294055.4,286047000.7,N
1647294075.2,286046999.9,N
1647294095.0,286046999.7,N
1647294095.9,286046999.7,N
1647294115.8,286047001.1,N
1647294135.6,286046999.5,N
1647294155.5,286046999.4,N
1647294175.3,286046997.1,N
1647294195.1,286046996.7,N
1647294215.9,286046997.4,N
1647294235.7,286046997.5,N
1647294255.5,286046998.9,N
1647294275.4,286046999.2,N
1647294295.2,286046996.5,N
1647294315.1,286046998.8,N
1647294316.0,286046998.8,N
1647294335.8,286046999.3,N
1647294355.6,286047002.3,N
1647294375.5,286047001.4,N
1647294395.3,286047004.4,Y
1647294415.1,286047002.1,P
1647294435.9,286047000.4,N
1647294455.7,286046998.4,N
1647294475.6,286046999.2,N
1647294495.4,286046997.1,N
1647294515.2,286046996.6,N
1647294535.1,286046999.2,N
1647294536.0,286046999.2,N
1647294555.8,286047000.6,N
1647294575.7,286047001.9,N
1647294595.5,286047000.4,N
1647294615.3,286046998.3,N
1647294635.2,286047000.2,N
1647294655.0,286047000.0,N
1647294655.9,286047000.0,N
1647294675.8,286047000.7,N
1647294695.6,286046998.4,N
1647294715.4,286046996.5,N
1647294735.1,286046997.0,N
1647294755.8,286046997.0,N
1647294775.7,286046997.4,N
1647294795.5,286046999.0,N
1647294815.4,286046997.2,N
1647294835.2,286046996.6,N
1647294855.0,286046997.7,N
1647294855.9,286046997.7,N
1647294875.8,286046997.3,N
1647294895.6,286046998.4,N
1647294915.4,286046999.1,N
1647294935.3,286046997.0,N
1647294955.1,286046998.5,N
1647294975.9,286046999.4,N
1647294995.7,286046998.5,N
1647295015.5,286047000.4,N
1647295035.4,286046998.5,N
1647295055.2,286046996.6,N
1647295075.0,286046998.8,N
1647295076.0,286046998.8,N
1647295095.8,286047000.6,N
1647295115.6,286047000.6,N
1647295135.5,286047000.2,N
1647295155.3,286046998.9,N
1647295175.2,286046999.2,N
1647295195.9,286046996.9,N
